Wind_Speed
8 8 8 7 7 6 5 3 3 4 4 4 5 6 7 7 7 7 7 8 9 9 9 9 9 10 10 11 11 11 11 12 12 12 12 12 13 14 15 15 15 15 15
8 8 8 7 6 7 6 4 3 3 4 5 6 7 7 7 8 8 9 9 9 9 9 9 10 9 10 11 11 11 11 12 12 12 13 13 13 14 14 15 15 16 16
8 8 8 7 7 7 7 5 4 3 5 6 7 8 8 8 9 9 9 9 10 10 10 10 10 10 11 11 11 11 11 11 11 11 12 12 13 13 14 14 16 16 16
8 8 8 8 8 8 7 6 5 5 5 6 7 8 8 9 9 10 10 10 10 10 10 11 11 11 11 11 12 11 11 11 11 12 12 12 13 14 14 14 14 15 16
8 8 8 9 8 8 7 6 5 6 6 6 7 8 9 10 10 10 10 11 11 11 11 11 11 11 11 11 11 12 12 11 12 13 13 13 14 14 14 14 13 14 14
9 8 9 9 8 8 7 6 5 6 6 6 7 7 8 9 10 10 11 11 11 11 10 10 11 11 11 11 11 12 12 12 13 13 13 13 13 14 15 15 15 15 15
9 9 9 9 9 8 6 6 6 6 6 6 7 7 8 9 9 10 10 10 10 10 11 11 11 11 12 12 12 12 12 13 13 14 14 14 14 14 14 15 15 16 16
9 9 9 10 10 9 8 7 7 6 7 7 7 8 8 9 9 9 9 10 11 11 11 11 11 11 12 12 13 13 13 13 14 14 14 14 14 14 14 15 15 16 17
10 10 10 10 9 9 8 8 8 7 7 8 8 9 9 9 10 10 10 10 11 12 12 12 12 12 12 13 13 14 14 14 14 14 14 14 14 15 14 15 16 16 17
10 10 10 10 9 9 9 9 9 9 9 9 9 9 10 10 11 11 11 12 12 12 13 13 13 14 14 14 14 14 14 14 15 14 14 14 15 16 16 16 17 18 18
11 11 11 10 10 9 9 9 9 9 9 9 9 10 10 10 11 12 12 12 13 13 14 14 14 15 15 15 16 15 14 14 15 15 15 16 16 17 17 18 19 19 19
12 12 12 11 11 11 11 11 10 10 10 10 10 11 11 11 11 12 13 12 13 13 14 15 15 16 16 16 16 16 16 15 16 16 16 17 18 18 18 18 18 19 19
13 14 13 12 11 12 12 12 11 12 12 11 11 11 11 11 12 13 13 13 13 13 14 14 15 15 15 15 15 15 16 16 16 16 16 17 18 18 18 18 18 18 19
14 15 14 13 13 13 13 13 13 13 13 13 13 13 12 12 13 13 13 13 13 14 14 14 15 15 14 15 15 15 15 15 16 17 17 17 18 18 18 18 18 18 19
15 16 16 15 14 14 14 14 14 14 14 14 14 14 13 13 13 13 13 14 14 14 14 14 15 15 15 15 15 16 16 16 17 17 18 18 19 19 19 20 20 20 20
16 16 16 15 15 15 15 15 14 14 14 13 13 13 13 14 14 13 14 14 14 14 14 15 15 16 16 16 16 16 16 17 18 18 18 19 19 20 20 20 20 20 20
17 17 16 15 15 15 15 15 15 14 14 14 13 13 13 14 13 13 14 14 15 15 15 15 15 16 16 16 16 16 16 17 18 19 19 19 20 20 21 21 21 22 22
17 17 17 16 15 15 15 15 15 15 15 14 14 14 14 14 14 15 15 15 16 15 15 16 17 17 17 17 17 17 18 19 19 20 20 21 22 22 22 22 23 23 23
18 18 17 16 16 16 16 15 15 15 15 15 15 15 14 14 14 15 16 16 16 16 15 16 17 17 18 18 19 19 20 20 20 21 21 22 22 22 23 23 23 24 24
18 18 17 16 16 16 16 16 15 15 15 15 16 16 16 15 15 15 15 15 15 15 15 16 17 17 18 18 19 20 20 20 20 21 21 22 22 23 23 24 24 24 24
18 18 17 17 17 16 16 16 16 16 16 16 16 16 16 15 15 15 15 16 16 16 16 16 17 18 18 18 19 19 20 21 21 21 22 23 23 23 24 24 24 24 25
18 18 17 17 17 17 17 17 17 16 16 17 17 16 16 15 16 15 15 16 16 17 17 17 17 18 19 19 19 19 20 21 21 22 23 23 24 24 24 24 24 24 24
18 18 18 17 17 17 17 17 18 17 17 17 18 18 17 17 16 16 16 17 17 17 18 19 19 19 20 20 21 21 21 22 22 23 23 23 24 24 25 25 25 25 25
18 18 18 18 18 18 18 18 18 18 19 19 19 19 19 19 18 18 18 18 18 19 19 19 19 20 20 21 21 22 22 22 23 23 24 24 24 24 24 25 25 25 25
19 18 18 19 19 18 18 18 18 18 19 20 20 19 19 19 19 19 19 19 20 20 20 20 20 20 20 21 22 22 23 23 23 23 24 24 24 25 25 25 25 25 25
19 19 19 19 19 19 19 19 19 19 20 20 20 19 19 19 19 19 20 20 20 21 21 21 21 21 21 22 23 23 23 22 22 23 24 24 25 25 25 25 25 25 25
Wind_Direction
358 358 357 355 353 347 341 318 273 255 254 249 244 238 239 237 237 234 243 247 248 251 253 255 256 254 258 264 263 264 268 268 264 262 259 262 262 260 257 259 256 255 255
358 358 356 353 353 346 340 330 300 268 256 250 245 245 242 242 240 241 245 247 248 252 255 259 259 261 260 260 261 266 271 272 266 265 263 263 264 263 260 259 260 257 254
351 351 350 348 347 344 336 324 310 293 261 253 251 246 243 242 241 242 243 245 248 255 259 264 268 265 265 266 264 268 271 274 272 267 265 263 264 264 264 262 261 258 255
348 345 345 345 342 338 331 323 310 299 286 268 258 253 250 250 245 246 247 251 253 258 260 263 267 266 265 264 264 269 271 273 271 268 266 266 265 265 265 267 263 257 253
346 344 341 342 344 340 331 321 306 296 290 281 269 259 256 254 253 252 251 251 254 257 260 263 265 263 262 261 263 266 268 271 268 269 268 268 267 267 265 265 263 257 255
342 341 340 339 340 339 333 324 308 296 292 284 275 265 258 259 258 256 253 253 255 257 260 263 264 262 261 261 265 269 271 273 273 273 271 271 270 270 266 263 261 260 259
335 337 335 334 329 326 323 317 307 299 294 288 280 270 263 263 259 256 254 253 255 258 260 262 263 262 259 261 265 270 271 273 275 276 274 273 273 273 267 262 261 261 261
331 331 330 329 324 321 319 318 309 300 292 288 283 277 271 270 267 259 256 258 259 260 261 262 265 265 262 263 267 269 271 271 274 274 274 274 274 275 273 265 263 263 263
328 328 326 326 323 321 320 317 313 301 293 287 283 280 275 270 265 262 259 260 263 264 263 265 265 266 267 267 269 270 271 273 273 273 273 275 276 274 274 270 267 264 264
327 328 326 324 320 317 316 315 312 304 295 289 282 278 275 272 268 263 261 261 263 265 267 268 267 267 268 268 271 271 271 272 273 276 277 276 276 275 275 273 270 267 267
325 324 324 322 317 314 312 311 311 305 300 291 283 279 276 273 270 268 266 265 266 266 266 267 268 269 269 268 270 270 272 272 273 278 277 276 277 278 278 276 273 268 267
318 319 320 319 312 310 310 308 306 304 300 294 284 282 278 274 273 270 269 269 270 268 268 267 268 271 272 272 271 269 269 272 274 276 277 278 279 281 280 279 277 272 269
312 313 312 313 308 306 304 305 305 304 299 294 290 286 281 276 274 271 270 270 272 271 269 269 271 273 274 275 274 270 270 272 273 275 277 279 281 282 281 281 281 278 274
305 305 305 305 305 303 302 301 303 305 299 293 291 287 281 277 272 270 269 270 273 274 273 272 272 274 274 275 275 271 270 272 274 276 277 279 281 283 281 281 281 278 279
300 299 299 298 301 300 299 300 302 304 301 296 293 288 281 278 276 273 269 271 275 276 277 274 274 272 274 278 276 272 271 274 275 276 278 279 279 280 282 283 282 279 280
299 297 295 295 297 298 298 297 298 301 303 299 296 290 282 280 276 272 272 274 272 272 277 276 275 275 274 276 276 277 276 276 277 277 279 280 279 282 285 284 283 281 282
299 298 295 293 294 296 296 297 298 298 300 300 297 292 287 283 275 271 273 274 275 274 275 275 276 278 278 278 277 278 279 280 279 279 280 282 282 283 284 284 283 283 282
298 296 294 293 293 294 294 296 298 298 297 296 296 294 289 283 278 274 273 274 275 276 276 275 276 277 278 278 278 280 282 281 280 280 281 283 284 285 285 284 283 283 282
299 296 293 292 294 294 294 295 296 296 294 293 294 292 290 286 281 277 276 276 276 275 277 278 277 278 279 280 280 281 284 283 280 281 282 284 286 286 286 285 284 283 281
300 299 296 297 299 295 294 297 296 295 294 295 296 294 289 284 282 278 277 277 278 277 279 281 282 282 282 280 280 282 283 283 282 282 282 284 286 286 286 285 284 283 280
300 301 303 301 300 298 295 295 296 295 293 296 296 294 291 286 282 278 277 278 278 278 279 281 282 283 283 282 282 283 284 284 284 284 284 286 286 287 287 288 287 286 283
298 300 299 298 298 298 298 298 297 297 297 296 295 293 290 286 282 280 280 279 279 279 279 281 282 283 285 285 284 284 285 285 285 285 285 286 287 288 288 290 290 289 286
298 297 298 299 297 298 300 300 298 295 298 296 293 293 290 288 287 283 282 282 282 282 281 282 282 282 283 284 284 285 287 287 287 288 287 286 287 289 290 290 290 291 290
295 294 295 297 298 298 299 300 300 299 299 297 293 291 290 288 286 284 281 282 283 285 285 283 282 282 282 283 285 286 287 286 288 289 288 287 288 290 293 293 292 291 290
292 292 293 293 295 296 297 298 298 298 299 299 295 291 290 288 285 284 283 283 284 284 285 284 283 283 284 285 286 286 286 287 288 290 289 288 289 290 292 294 293 293 293
289 290 292 292 292 292 293 297 298 298 298 297 296 291 289 287 286 284 284 285 285 283 283 282 282 283 285 287 286 286 286 289 291 292 292 291 291 292 291 292 294 294 294
Height
5864 5862 5861 5859 5858 5857 5855 5855 5855 5856 5857 5858 5859 5859 5860 5861 5862 5863 5864 5865 5865 5866 5866 5867 5867 5867 5868 5868 5868 5868 5868 5868 5868 5868 5868 5868 5868 5868 5868 5868 5869 5869 5869
5863 5862 5860 5859 5858 5857 5856 5856 5856 5856 5856 5857 5857 5858 5859 5860 5860 5861 5862 5863 5863 5864 5864 5865 5865 5865 5865 5865 5865 5865 5865 5865 5865 5865 5865 5865 5865 5865 5864 5864 5864 5864 5865
5862 5861 5860 5859 5858 5856 5856 5855 5855 5855 5855 5855 5856 5856 5857 5858 5859 5859 5860 5860 5861 5861 5862 5862 5862 5863 5863 5863 5863 5863 5862 5862 5862 5862 5862 5862 5862 5861 5861 5860 5859 5860 5861
5862 5861 5860 5858 5857 5856 5855 5854 5854 5854 5854 5854 5854 5854 5855 5856 5857 5857 5858 5858 5859 5859 5859 5860 5860 5860 5860 5860 5860 5860 5860 5859 5859 5859 5859 5858 5858 5858 5857 5856 5855 5855 5856
5862 5860 5859 5858 5856 5855 5854 5853 5853 5853 5852 5852 5852 5853 5853 5854 5854 5855 5855 5856 5856 5856 5857 5857 5857 5857 5857 5857 5857 5857 5857 5856 5856 5856 5855 5855 5855 5855 5854 5854 5853 5853 5854
5861 5859 5858 5857 5856 5854 5853 5852 5852 5851 5851 5851 5851 5851 5851 5851 5852 5852 5853 5853 5853 5854 5854 5854 5854 5854 5855 5855 5855 5854 5854 5853 5853 5853 5852 5852 5852 5851 5851 5851 5851 5851 5851
5860 5858 5857 5856 5855 5853 5852 5851 5851 5850 5850 5849 5849 5849 5849 5849 5849 5850 5850 5850 5851 5851 5851 5851 5852 5851 5852 5852 5852 5851 5851 5850 5850 5849 5849 5849 5848 5848 5848 5848 5848 5847 5847
5859 5857 5856 5855 5853 5852 5851 5850 5849 5849 5848 5848 5847 5847 5847 5848 5847 5847 5848 5848 5848 5848 5848 5849 5849 5849 5849 5849 5849 5848 5848 5848 5847 5847 5846 5845 5845 5845 5844 5844 5844 5844 5843
5857 5856 5854 5853 5852 5850 5849 5848 5848 5847 5846 5846 5845 5845 5845 5845 5845 5845 5845 5845 5845 5845 5845 5846 5846 5846 5846 5846 5845 5845 5845 5844 5844 5843 5843 5842 5842 5841 5841 5841 5840 5840 5839
5856 5854 5853 5851 5850 5849 5848 5847 5846 5845 5844 5843 5843 5842 5842 5842 5842 5842 5843 5843 5842 5843 5843 5843 5843 5842 5842 5842 5842 5841 5841 5841 5841 5840 5839 5839 5838 5838 5837 5837 5836 5836 5836
5854 5852 5851 5849 5848 5847 5846 5845 5844 5842 5841 5841 5840 5840 5839 5839 5839 5839 5840 5840 5840 5840 5839 5839 5839 5839 5839 5838 5838 5838 5838 5837 5837 5836 5836 5835 5835 5834 5833 5832 5832 5831 5831
5852 5851 5849 5847 5846 5845 5844 5842 5841 5840 5839 5838 5837 5837 5836 5836 5836 5836 5836 5836 5836 5836 5836 5836 5835 5835 5834 5834 5834 5834 5834 5833 5833 5832 5832 5831 5830 5829 5829 5828 5827 5826 5826
5850 5848 5847 5845 5844 5843 5842 5840 5839 5838 5836 5835 5834 5834 5833 5833 5833 5833 5833 5833 5833 5833 5832 5832 5831 5831 5830 5830 5830 5829 5829 5829 5829 5828 5828 5827 5826 5825 5824 5823 5822 5821 5821
5847 5846 5844 5842 5841 5840 5839 5838 5836 5835 5834 5832 5831 5831 5830 5830 5829 5829 5830 5829 5829 5829 5829 5828 5828 5827 5827 5826 5826 5825 5825 5825 5825 5824 5823 5823 5822 5821 5820 5819 5818 5817 5816
5844 5842 5841 5839 5838 5837 5836 5835 5833 5832 5831 5829 5828 5827 5827 5827 5826 5826 5826 5826 5826 5826 5825 5824 5824 5823 5823 5822 5822 5821 5821 5821 5820 5820 5819 5818 5817 5816 5815 5814 5813 5812 5811
5840 5838 5837 5836 5835 5833 5832 5831 5830 5829 5827 5826 5825 5824 5823 5823 5822 5822 5822 5822 5822 5822 5821 5820 5820 5820 5819 5818 5818 5817 5817 5817 5816 5815 5814 5813 5813 5811 5810 5809 5808 5806 5805
5835 5834 5833 5832 5831 5829 5828 5827 5826 5825 5823 5822 5821 5820 5819 5819 5818 5818 5818 5818 5818 5818 5817 5817 5816 5816 5815 5814 5814 5813 5813 5812 5811 5811 5810 5809 5807 5806 5805 5804 5802 5801 5799
5831 5830 5829 5828 5827 5826 5824 5823 5822 5821 5819 5818 5817 5816 5815 5815 5814 5814 5814 5814 5814 5813 5813 5813 5812 5811 5811 5810 5810 5809 5808 5807 5806 5805 5804 5803 5802 5800 5799 5797 5796 5795 5793
5827 5826 5825 5824 5823 5821 5820 5819 5818 5816 5815 5814 5813 5813 5812 5811 5810 5810 5810 5810 5809 5809 5809 5808 5808 5807 5806 5806 5805 5804 5803 5802 5801 5800 5799 5797 5796 5794 5792 5791 5789 5788 5787
5823 5821 5819 5818 5818 5817 5816 5814 5813 5812 5811 5810 5809 5808 5807 5807 5806 5806 5806 5805 5805 5805 5804 5804 5803 5802 5801 5801 5800 5799 5798 5797 5795 5794 5793 5791 5790 5788 5786 5784 5783 5781 5780
5818 5817 5815 5814 5813 5812 5811 5810 5809 5808 5807 5806 5805 5804 5803 5802 5802 5802 5801 5801 5801 5800 5800 5799 5798 5797 5796 5795 5794 5793 5792 5791 5789 5788 5787 5785 5783 5782 5780 5778 5776 5774 5773
5815 5813 5811 5810 5809 5808 5807 5806 5805 5804 5803 5802 5800 5799 5798 5798 5797 5797 5797 5796 5796 5796 5795 5794 5793 5792 5792 5790 5789 5788 5786 5785 5784 5783 5781 5779 5777 5775 5773 5771 5769 5767 5766
5810 5809 5808 5806 5805 5804 5803 5802 5801 5800 5798 5797 5796 5795 5794 5793 5792 5792 5792 5792 5791 5790 5790 5789 5788 5787 5786 5785 5784 5782 5781 5779 5778 5776 5774 5773 5770 5768 5766 5764 5762 5760 5759
5806 5805 5804 5802 5802 5800 5799 5798 5796 5795 5794 5792 5791 5790 5789 5788 5788 5787 5787 5786 5786 5785 5784 5783 5782 5781 5780 5778 5777 5776 5775 5773 5771 5769 5767 5766 5763 5762 5760 5757 5755 5753 5752
5802 5800 5799 5798 5798 5797 5795 5794 5792 5791 5789 5787 5786 5785 5784 5783 5782 5782 5781 5781 5780 5779 5777 5777 5776 5775 5773 5772 5771 5769 5768 5766 5765 5762 5760 5758 5756 5754 5753 5750 5748 5746 5744
5797 5796 5795 5794 5793 5792 5791 5789 5788 5786 5784 5783 5781 5780 5779 5778 5777 5776 5775 5774 5773 5772 5771 5770 5769 5768 5767 5765 5764 5762 5761 5759 5757 5756 5753 5751 5749 5747 5746 5743 5741 5739 5737